Location: Unspecified
(0.0000°N, 0.0000°E)
Time: 06:28:03
(UTC+00:00)

Vanguard 2 - Pass Details

Date: 22 May 2026
Orbit: 553 x 2894 km, 32.9° (Epoch: 9 June)

Event Time Altitude Azimuth Distance (km) Brightness Sun altitude
Rises 01:20:16 0° 301° (WNW) 6,068 - -61.1°
Exits shadow 01:23:00 - 309° (NW) 5,753 11.9 -60.7°
Reaches altitude 10° 01:26:51 10° 321° (NW) 5,409 11.8 -60.0°
Maximum altitude 01:35:52 16° 354° (N) 5,140 11.8 -58.3°
Drops below altitude 10° 01:45:17 10° 28° (NNE) 5,660 12.2 -56.5°
Sets 01:52:33 0° 47° (NE) 6,474 12.8 -55.1°
